Regional Weather Roundup
Issued by NWS Jackson, KY

Home | Current Version | Previous Version | Text Only | Print | Product List | Glossary Off
Versions: 1 2 3 4 5 6 7 8 9 10 11 12 13 14 15 16 17 18 19 20 21 22 23 24 25 26 27 28 29 30 31 32 33 34 35 36 37 38 39 40 41 42 43 44 45 46 47 48 49 50

000
ASUS43 KJKL 210710
RWRJKL

EAST KENTUCKY HOURLY WEATHER ROUNDUP
NATIONAL WEATHER SERVICE JACKSON KY
200 AM EST SUN DEC 21 2014

NOTE: "FAIR" INDICATES FEW OR NO CLOUDS BELOW 12,000 FEET WITH
NO SIGNIFICANT WEATHER AND/OR OBSTRUCTIONS TO VISIBILITY.

* THESE REPORTS ARE NOT UNDER NWS QUALITY CONTROL AND MAY NOT
  REPORT WEATHER SUCH AS PRECIPITATION AND FOG.

KYZ079-080-083-085-087-088-110-112-115-119-120-210800
...EASTERN KENTUCKY...

CITY           SKY/WX    TMP DP  RH WIND       PRES   REMARKS
JACKSON        CLEAR     28  23  81 CALM      30.25S
LONDON         CLEAR     25  32 100 CALM      30.25F
SOMERSET*      CLEAR     23  23 100 CALM      30.28F
MONTICELLO*    CLEAR     20  18  92 CALM      30.29F FOG
MIDDLESBORO*   CLEAR     27  26  96 CALM      30.26F
HARLAN APT*    SUNNY     30  28  93 CALM      30.24S
HAZARD APT*    SUNNY     27  27 100 CALM      30.25S
BLACK MTN*       N/A     27  23  86 CALM        N/A
PIKEVILLE APT* CLEAR     28  25  86 CALM      30.24R
BIG SANDY*     SUNNY     29  26  88 CALM      30.26R
MOREHEAD APT*  CLOUDY    30  27  86 CALM      30.29S
$$

KYZ035-036-041-042-044-050-067-078-099-210800
...CENTRAL KENTUCKY...

CITY           SKY/WX    TMP DP  RH WIND       PRES   REMARKS
MT STERLING*   CLEAR     28  27  93 CALM      30.29S
FLEMING/MASON* CLOUDY    30  27  86 CALM      30.29S
DANVILLE*      CLEAR     21  21 100 CALM      30.28F FOG
RICHMOND*      CLEAR     23  21  93 CALM      30.27S
LEXINGTON      CLEAR     24  21  88 CALM      30.28S FOG
FRANKFORT      CLEAR     23  19  85 CALM      30.27S
$$

KYZ091>093-OHZ055-061-077-WVZ005-015-034-035-042-210800
...SOUTHERN OHIO/WEST VIRGINIA...

CITY           SKY/WX    TMP DP  RH WIND       PRES   REMARKS
COVINGTON      CLOUDY    32  22  66 N5        30.28  WCI  27
COLUMBUS       CLOUDY    30  24  78 CALM      30.29R
DAYTON         MOCLDY    27  22  81 CALM      30.29S
WILMINGTON     CLOUDY    23  20  88 CALM      30.28S FOG
HUNTINGTON     PTCLDY    29  26  89 N5        30.28R WCI  24
CHARLESTON     CLOUDY    33  26  75 CALM      30.27R
PINEVILLE*     CLOUDY    35  34  97 MISG      30.26S
BECKLEY        CLOUDY    32  26  78 CALM      30.18S
BLUEFIELD      CLOUDY    33  30  88 CALM      30.19R
$$

VAZ002-007-008-TNZ017-027-036-066-071-210800
...SOUTHWEST VIRGINIA/EAST TENNESSEE...

CITY           SKY/WX    TMP DP  RH WIND       PRES   REMARKS
WISE*          CLEAR     32  32 100 CALM      30.20S FOG
JONESVILLE*    SUNNY     27  27 100 CALM      30.26S
ABINGDON*      CLOUDY    39  38  94 W3        30.21R
BRISTOL        CLOUDY    39  37  92 CALM      30.23R
KNOXVILLE      MOCLDY    39  34  82 N8        30.23S WCI  33
OAK RIDGE      CLEAR     30  28  92 CALM      30.25F
CROSSVILLE     CLEAR     31  23  72 CALM      30.21F
NASHVILLE      CLEAR     30  27  88 CALM      30.26F
$$

...KEY TO REMARKS...
VSB - VISIBILITY IN MILES
WCI - WIND CHILL INDEX
HX  - HEAT INDEX

$$



USA.gov is the U.S. government's official web portal to all federal, state and local government web resources and services.